{"data":{"norad_id":62485,"intl_designator":"2025-002A","name":"SHIJIAN-25 (SJ-25)","alt_names":[],"object_type":"PAYLOAD","status":"ACTIVE","operator":null,"country":"PRC","launch_date":"2025-01-06","launch_site_code":"XICLF","launch_vehicle":null,"mission":null,"orbit_class":"UNKNOWN","rcs_meters":null,"size_class":null,"mass_kg":null,"dimensions":null,"purposes":["comms"],"wikipedia_slug":null,"has_3d_model":false,"image_url":null,"decayed_at":null,"tle_current":{"epoch":"2026-05-24T16:22:18.369984Z","epoch_age_seconds":102530,"freshness":"FRESH","line1":"1 62485U 25002A   26144.68215706 -.00000353  00000+0  00000+0 0  9996","line2":"2 62485   5.0596  61.3122 0051859 171.3981  22.5715  1.00268837  5120","mean_motion":1.00268837,"eccentricity":0.0051859,"inclination_deg":5.0596,"raan_deg":61.3122,"arg_perigee_deg":171.3981,"mean_anomaly_deg":22.5715,"bstar":0,"rev_number":512,"period_min":1436.1391266561,"perigee_km":35568.755043481,"apogee_km":36006.087782228,"semimajor_km":42165.558412854,"source":"CELESTRAK","updated_at":"2026-05-25T13:38:14.150539Z"}}}